Location: Big Meadow
(36.7100°N, 118.8650°W)
Time: 00:14:56
(UTC-07:00)

Daily predictions for brighter satellites

Satellite Brightness Start Highest point End
(mag) Time Altitude Azimuth Time Altitude Azimuth Time Altitude Azimuth
Cosmos 2278 Rocket 4.1 00:11:01 10° NNW 00:13:15 25° NNW 00:13:15 25° NNW
SL-16 R/B 4.3 00:45:20 22° NNE 00:45:20 22° NNE 00:47:14 10° NNE
Cosmos 2369 Rocket 4.2 01:20:45 10° N 01:23:26 23° NNE 01:23:26 23° NNE
CENTAUR R/B 4.2 01:34:49 10° NW 01:38:54 32° NW 01:38:54 32° NW
ADEOS Rocket 4.4 02:05:51 10° NNE 02:08:42 29° NE 02:08:42 29° NE
Cosmos 1943 Rocket 3.9 02:52:00 10° NNW 02:54:06 24° NNW 02:54:06 24° NNW
SL-16 R/B 2.7 03:00:43 66° ENE 03:00:43 66° ENE 03:06:48 10° N
Resurs 1-4 Rocket 3.0 02:56:37 10° NNE 03:00:31 46° NE 03:00:31 46° NE
Cosmos 1821 Rocket 4.3 03:04:52 61° NNW 03:04:52 61° NNW 03:10:00 10° N
Cosmos 2123 Rocket 4.3 02:59:04 10° N 03:05:15 58° E 03:05:32 58° E
Cosmos 1656 Rocket 4.3 02:59:42 10° NNW 03:05:15 52° ENE 03:05:19 52° ENE
BREEZE-M DEB (TANK) 3.9 03:05:59 81° S 03:05:59 81° S 03:23:01 10° SE
CZ-2D R/B 2.6 03:07:17 10° NNE 03:11:34 56° NE 03:11:34 56° NE
Centaur D AC-29 4.0 03:15:46 25° SSE 03:15:46 25° SSE 03:24:55 10° ESE
Cosmos 1934 Rocket 4.0 03:19:10 68° NNW 03:19:10 68° NNW 03:24:29 10° N
USA 229 DEB 4.3 03:16:56 10° NNW 03:24:01 57° NE 03:31:12 10° SE
USA 229 4.3 03:17:03 10° NNW 03:24:07 57° NE 03:31:17 10° SE
Cosmos 1605 Rocket 3.9 03:32:10 79° S 03:32:37 90° E 03:39:04 10° N
ARIANE 5 R/B 2.7 03:28:20 10° N 03:32:51 66° N 03:32:51 66° N
UNKNOWN OBJECT B 4.1 03:32:33 10° NNE 03:35:28 41° NE 03:35:28 41° NE
Cosmos 1726 3.9 03:38:31 31° NE 03:38:31 31° NE 03:40:44 10° NNE
MOZ.5/SAFIR/RUBIN 5/SL-8 4.1 03:39:36 63° ENE 03:39:36 63° ENE 03:44:07 10° N
Hubble Space Telescope 3.5 03:48:18 11° SE 03:48:18 11° SE 03:48:26 10° ESE
ADEOS II 3.7 03:47:44 10° NE 03:52:19 29° E 03:55:48 15° SSE
Cosmos 2221 4.0 03:54:47 27° NNW 03:54:47 27° NNW 03:57:10 10° N
Cosmos 1153 Rocket 4.4 03:53:36 53° S 03:55:17 89° W 04:01:40 10° N
Cosmos 1666 Rocket 3.8 03:51:14 10° N 03:55:40 66° E 03:56:03 63° ESE
ADEOS Rocket 4.4 03:52:35 10° NNW 03:55:38 19° NW 03:55:38 19° NW
Cosmos 1805 Rocket 4.1 03:53:12 10° N 03:56:30 48° NNW 03:56:30 48° NNW
IRS-1D 4.3 03:53:16 10° N 03:57:32 39° NW 03:57:32 39° NW
Kakehashi 4.1 04:00:13 41° S 04:00:51 42° SSE 04:07:17 10° E
ADEOS 4.0 04:01:53 10° N 04:06:50 45° WNW 04:06:52 45° WNW
BREEZE M DEB (TANK) 3.6 04:05:41 22° NW 04:08:06 66° NE 04:19:48 10° ESE
Cosmos 773 Rocket 4.4 04:06:32 36° SSE 04:08:29 58° ESE 04:13:41 10° NNE
Cosmos 2100 Rocket 4.2 04:05:50 28° S 04:09:26 74° E 04:15:48 10° N
OAO 1 4.4 04:09:56 60° SW 04:10:50 74° S 04:16:21 10° E
COSMOS 2406 3.7 04:11:14 41° W 04:11:51 42° WNW 04:17:15 10° N
Cosmos 1447 Rocket 4.4 04:08:33 10° NNW 04:14:42 71° W 04:17:42 32° S
Okean O Rocket 3.5 04:11:05 10° NE 04:14:49 26° E 04:18:30 10° SSE
Cosmos 1151 Rocket 4.1 04:15:14 20° SSE 04:17:45 42° E 04:21:48 10° NNE
Cosmos 2285 Rocket 4.3 04:16:38 41° WSW 04:18:07 49° WNW 04:24:19 10° N
Cosmos 1833 Rocket 4.2 04:14:04 11° SSE 04:18:42 32° ESE 04:23:38 10° NE
Meteor 2-10 4.1 04:19:23 35° S 04:21:58 86° W 04:27:41 10° N
Cosmos 1300 2.9 04:22:37 54° NW 04:22:37 54° NW 04:26:00 10° N
Sich 1 3.3 04:27:29 10° NNW 04:31:36 44° W 04:31:36 44° W
CZ-2D R/B 4.4 04:31:21 10° N 04:34:38 30° WNW 04:34:38 30° WNW
Cosmos 2173 Rocket 3.9 04:31:44 24° SSW 04:35:45 75° W 04:42:07 10° N
Cosmos 1455 3.5 04:35:24 10° SSE 04:38:51 38° E 04:42:22 10° NNE
Cosmos 1315 Rocket 3.6 04:36:40 10° NNW 04:39:53 34° WNW 04:39:53 34° WNW
Resurs 1-4 Rocket 3.8 04:38:06 10° NNW 04:41:07 16° WNW 04:41:35 15° WNW
SL-16 R/B 4.1 04:45:49 16° W 04:45:49 16° W 04:48:35 10° NW
Cosmos 2228 Rocket 3.3 04:46:15 32° SW 04:47:59 51° W 04:52:19 10° N
Cosmos 1470 Rocket 3.4 04:43:45 10° N 04:48:04 77° W 04:52:22 10° S
PSLV R/B 4.3 04:47:33 22° NW 04:49:13 40° N 04:52:19 10° E
CZ-2D R/B 4.0 04:49:44 10° NW 04:52:00 13° WNW 04:52:53 12° WNW
Tiangong 2 1.2 04:51:27 44° SSW 04:52:14 63° SSE 04:55:26 10° ENE
Cosmos 1515 Rocket 3.7 04:52:14 27° SW 04:54:22 53° W 04:58:42 10° N
Cosmos 1459 Rocket 4.2 04:54:42 20° SW 04:58:36 46° W 05:04:25 10° N
PSLV R/B 3.9 04:55:30 10° N 04:59:37 63° WNW 05:02:27 19° SSW
Cosmos 1633 Rocket 4.0 04:56:33 10° NNW 05:00:08 26° W 05:00:51 24° WSW
Cosmos 923 Rocket 3.9 04:58:17 16° SSW 05:02:25 76° WNW 05:07:39 10° NNE
Cosmos 2082 Rocket 2.2 04:58:18 12° SSW 05:03:28 84° ESE 05:09:08 10° NNE
IRS-1C Rocket 4.3 05:01:03 10° NNE 05:06:19 75° ESE 05:11:34 10° S
CZ-4B R/B 3.3 05:05:22 10° N 05:09:45 57° WNW 05:13:49 12° SSW
Meteor 1-31 Rocket 3.9 05:06:32 10° NNE 05:10:20 44° E 05:14:07 10° S
Lacrosse 5 3.0 05:06:48 10° NNW 05:11:43 47° NE 05:16:35 10° ESE
Meteor 2-3 Rocket 3.7 05:06:33 10° NNW 05:12:12 75° W 05:17:52 10° S
Meteor PRIRODA 4.1 05:09:46 10° NNE 05:13:23 60° E 05:16:59 10° S
Cosmos 192 4.3 05:09:49 13° SSW 05:14:16 68° WNW 05:19:13 10° NNE
CZ-2C R/B 4.3 05:14:39 10° SSE 05:18:59 60° ENE 05:23:23 10° N
NOSS 3-1 (A) 4.1 05:12:28 10° NW 05:20:17 74° WSW 05:28:46 10° SSE
Shenzhou-11 Module 2.5 05:18:40 18° W 05:20:41 53° NNW 05:23:44 10° ENE
Landsat 4 3.6 05:17:25 10° S 05:21:08 81° W 05:24:54 10° NNW
Cosmos 1680 Rocket 3.5 05:16:14 10° SSW 05:21:29 67° WNW 05:26:47 10° NNE
Cosmos 1892 3.0 05:18:22 10° NNW 05:22:03 45° W 05:25:43 10° SSW
CZ-4B R/B 3.1 05:16:48 10° N 05:22:16 73° WNW 05:27:36 10° SSW
Hubble Space Telescope 2.1 05:23:40 14° SW 05:26:19 26° S 05:29:46 10° ESE
Cosmos 2112 Rocket 4.1 05:22:47 10° SSW 05:28:03 69° WNW 05:33:23 10° NNE
PAYLOAD B 4.4 05:24:48 10° N 05:30:16 54° WNW 05:35:40 10° SSW
Cosmos 2084 3.5 05:26:21 10° SSW 05:30:28 71° ESE 05:34:21 10° NE
ADEOS II 3.0 05:27:24 10° N 05:31:56 30° WNW 05:36:27 10° SW
PSLV R/B 4.3 05:28:18 10° N 05:32:13 34° WNW 05:36:05 10° SW
Cosmos 2233 Rocket 4.0 05:27:08 10° S 05:33:16 84° W 05:39:25 10° N
Cosmos 2369 3.8 05:27:47 10° NNW 05:33:18 56° WSW 05:38:48 10° S
OAO 2 Rocket 4.0 05:29:52 11° SW 05:34:15 44° SSE 05:39:01 10° E
Abrixas 2.0 05:32:03 10° WNW 05:34:39 75° SW 05:37:15 10° SE
Cosmos 1825 2.9 05:33:21 10° N 05:37:07 58° E 05:40:52 10° SSE
COSMOS 2487 3.6 05:36:30 10° SW 05:39:30 27° WNW 05:42:35 10° N
USA 234 3.3 05:38:08 10° NE 05:44:43 89° SE 05:51:16 10° SW
Cosmos 1656 3.8 05:41:21 10° NNW 05:46:56 57° WSW 05:52:28 10° S
Okean-O 3.0 05:43:25 10° NNE 05:47:52 71° ESE 05:52:16 10° S
Lacrosse 4 Rocket 4.1 05:46:27 10° SSE 05:49:53 22° ESE 05:53:22 10° NE
Okean O Rocket 2.8 05:47:29 10° NNW 05:51:03 24° WNW 05:54:35 10° WSW
